Time,TemperatureF,DewpointF,PressureIn,WindDirection,WindDirectionDegrees,WindSpeedMPH,WindSpeedGustMPH,Humidity,HourlyPrecipIn,Conditions,Clouds,dailyrainin,SolarRadiationWatts/m^2,SoftwareType,DateUTC
2013-04-15 00:00:00,32.0,31.0,-100.00,ESE,115,6.0,13.0,96,0.03,,,0.07,0.000000,,2013-04-15 05:00:00,
2013-04-15 00:33:00,32.0,31.0,-100.00,ESE,115,6.0,13.0,96,0.03,,,0.07,0.000000,,2013-04-15 05:33:00,
2013-04-15 00:43:00,32.0,31.0,-100.00,ESE,115,6.0,13.0,96,0.03,,,0.07,0.000000,,2013-04-15 05:43:00,
2013-04-15 00:53:00,32.0,31.0,-100.00,ESE,115,6.0,13.0,96,0.03,,,0.07,0.000000,,2013-04-15 05:53:00,
2013-04-15 01:00:00,32.0,31.0,-100.00,ESE,109,5.0,17.0,96,0.01,,,0.08,0.000000,,2013-04-15 06:00:00,
2013-04-15 01:23:00,32.0,31.0,-100.00,ESE,109,5.0,17.0,96,0.01,,,0.08,0.000000,,2013-04-15 06:23:00,
2013-04-15 01:34:00,32.0,31.0,-100.00,ESE,109,5.0,17.0,96,0.01,,,0.08,0.000000,,2013-04-15 06:34:00,
2013-04-15 01:43:00,32.0,31.0,-100.00,ESE,109,5.0,17.0,96,0.01,,,0.08,0.000000,,2013-04-15 06:43:00,
2013-04-15 01:52:00,32.0,31.0,-100.00,ESE,109,5.0,17.0,96,0.01,,,0.08,0.000000,,2013-04-15 06:52:00,
2013-04-15 02:00:00,32.0,31.0,-100.00,ESE,121,4.0,14.0,97,0.02,,,0.10,0.000000,,2013-04-15 07:00:00,
2013-04-15 02:42:00,32.0,31.0,-100.00,ESE,121,4.0,14.0,97,0.02,,,0.10,0.000000,,2013-04-15 07:42:00,
2013-04-15 02:43:00,32.0,31.0,-100.00,ESE,121,4.0,14.0,97,0.02,,,0.10,0.000000,,2013-04-15 07:43:00,
2013-04-15 02:54:00,32.0,31.0,-100.00,ESE,121,4.0,14.0,97,0.02,,,0.10,0.000000,,2013-04-15 07:54:00,
2013-04-15 03:34:00,32.0,32.0,-100.00,SE,133,3.0,10.0,98,0.01,,,0.11,0.000000,,2013-04-15 08:34:00,
2013-04-15 03:43:00,32.0,32.0,-100.00,SE,133,3.0,10.0,98,0.01,,,0.11,0.000000,,2013-04-15 08:43:00,
2013-04-15 03:52:00,32.0,32.0,-100.00,SE,133,3.0,10.0,98,0.01,,,0.11,0.000000,,2013-04-15 08:52:00,
2013-04-15 04:00:00,32.0,32.0,-100.00,SSE,163,2.0,6.0,98,0.00,,,0.11,0.000000,,2013-04-15 09:00:00,
2013-04-15 04:23:00,32.0,32.0,-100.00,SSE,163,2.0,6.0,98,0.00,,,0.11,0.000000,,2013-04-15 09:23:00,
2013-04-15 04:33:00,32.0,32.0,-100.00,SSE,163,2.0,6.0,98,0.00,,,0.11,0.000000,,2013-04-15 09:33:00,
2013-04-15 04:43:00,32.0,32.0,-100.00,SSE,163,2.0,6.0,98,0.00,,,0.11,0.000000,,2013-04-15 09:43:00,
2013-04-15 04:53:00,32.0,32.0,-100.00,SSE,163,2.0,6.0,98,0.00,,,0.11,0.000000,,2013-04-15 09:53:00,
2013-04-15 05:00:00,33.0,33.0,-100.00,SSE,167,3.0,11.0,99,0.01,,,0.12,0.000000,,2013-04-15 10:00:00,
2013-04-15 05:33:00,33.0,33.0,-100.00,SSE,167,3.0,11.0,99,0.01,,,0.12,0.000000,,2013-04-15 10:33:00,
2013-04-15 05:42:00,33.0,33.0,-100.00,SSE,167,3.0,11.0,99,0.01,,,0.12,0.000000,,2013-04-15 10:42:00,
2013-04-15 05:53:00,33.0,33.0,-100.00,SSE,167,3.0,11.0,99,0.01,,,0.12,0.000000,,2013-04-15 10:53:00,
2013-04-15 06:00:00,33.0,32.0,-100.00,SSE,167,3.0,9.0,98,0.00,,,0.12,0.000000,,2013-04-15 11:00:00,
2013-04-15 06:23:00,33.0,32.0,-100.00,SSE,167,3.0,9.0,98,0.00,,,0.12,0.000000,,2013-04-15 11:23:00,
2013-04-15 06:33:00,33.0,32.0,-100.00,SSE,167,3.0,9.0,98,0.00,,,0.12,0.000000,,2013-04-15 11:33:00,
2013-04-15 06:43:00,33.0,32.0,-100.00,SSE,167,3.0,9.0,98,0.00,,,0.12,0.000000,,2013-04-15 11:43:00,
2013-04-15 06:54:00,33.0,32.0,-100.00,SSE,167,3.0,9.0,98,0.00,,,0.12,0.000000,,2013-04-15 11:54:00,
2013-04-15 07:00:00,33.0,32.0,-100.00,SSE,161,2.0,9.0,97,0.00,,,0.12,26.000000,,2013-04-15 12:00:00,
2013-04-15 07:34:00,33.0,32.0,-100.00,SSE,161,2.0,9.0,97,0.00,,,0.12,26.000000,,2013-04-15 12:34:00,
2013-04-15 07:43:00,33.0,32.0,-100.00,SSE,161,2.0,9.0,97,0.00,,,0.12,26.000000,,2013-04-15 12:43:00,
2013-04-15 07:53:00,33.0,32.0,-100.00,SSE,161,2.0,9.0,97,0.00,,,0.12,26.000000,,2013-04-15 12:53:00,
2013-04-15 08:00:00,35.0,33.0,-100.00,SSE,159,1.0,9.0,93,0.01,,,0.13,192.000000,,2013-04-15 13:00:00,
2013-04-15 08:34:00,35.0,33.0,-100.00,SSE,159,1.0,9.0,93,0.01,,,0.13,192.000000,,2013-04-15 13:34:00,
2013-04-15 08:43:00,35.0,33.0,-100.00,SSE,159,1.0,9.0,93,0.01,,,0.13,192.000000,,2013-04-15 13:43:00,
2013-04-15 08:54:00,35.0,33.0,-100.00,SSE,159,1.0,9.0,93,0.01,,,0.13,192.000000,,2013-04-15 13:54:00,
2013-04-15 09:00:00,39.0,34.0,-100.00,South,177,6.0,13.0,81,0.15,,,0.28,425.000000,,2013-04-15 14:00:00,
2013-04-15 09:23:00,39.0,34.0,-100.00,South,177,6.0,13.0,81,0.15,,,0.28,425.000000,,2013-04-15 14:23:00,
2013-04-15 09:34:00,39.0,34.0,-100.00,South,177,6.0,13.0,81,0.15,,,0.28,425.000000,,2013-04-15 14:34:00,
2013-04-15 09:44:00,39.0,34.0,-100.00,South,177,6.0,13.0,81,0.15,,,0.28,425.000000,,2013-04-15 14:44:00,
2013-04-15 09:55:00,39.0,34.0,-100.00,South,177,6.0,13.0,81,0.15,,,0.28,425.000000,,2013-04-15 14:55:00,
2013-04-15 10:00:00,38.0,27.0,-100.00,SSW,205,13.0,26.0,63,0.14,,,0.42,553.000000,,2013-04-15 15:00:00,
2013-04-15 10:37:00,38.0,27.0,-100.00,SSW,205,13.0,26.0,63,0.14,,,0.42,553.000000,,2013-04-15 15:37:00,
2013-04-15 10:45:00,38.0,27.0,-100.00,SSW,205,13.0,26.0,63,0.14,,,0.42,553.000000,,2013-04-15 15:45:00,
2013-04-15 10:55:00,38.0,27.0,-100.00,SSW,205,13.0,26.0,63,0.14,,,0.42,553.000000,,2013-04-15 15:55:00,
2013-04-15 11:00:00,41.0,25.0,-100.00,SSW,199,12.0,23.0,52,0.07,,,0.49,772.000000,,2013-04-15 16:00:00,
2013-04-15 11:25:00,41.0,25.0,-100.00,SSW,199,12.0,23.0,52,0.07,,,0.49,772.000000,,2013-04-15 16:25:00,
2013-04-15 11:44:00,41.0,25.0,-100.00,SSW,199,12.0,23.0,52,0.07,,,0.49,772.000000,,2013-04-15 16:44:00,
2013-04-15 11:54:00,41.0,25.0,-100.00,SSW,199,12.0,23.0,52,0.07,,,0.49,772.000000,,2013-04-15 16:54:00,
2013-04-15 12:00:00,39.0,25.0,-100.00,SW,228,12.0,23.0,57,0.02,,,0.51,694.000000,,2013-04-15 17:00:00,
2013-04-15 12:33:00,39.0,25.0,-100.00,SW,228,12.0,23.0,57,0.02,,,0.51,694.000000,,2013-04-15 17:33:00,
2013-04-15 12:43:00,39.0,25.0,-100.00,SW,228,12.0,23.0,57,0.02,,,0.51,694.000000,,2013-04-15 17:43:00,
2013-04-15 12:52:00,39.0,25.0,-100.00,SW,228,12.0,23.0,57,0.02,,,0.51,694.000000,,2013-04-15 17:52:00,
2013-04-15 13:00:00,35.0,23.0,-100.00,SSW,207,14.0,31.0,61,0.00,,,0.51,429.000000,,2013-04-15 18:00:00,
2013-04-15 13:24:00,35.0,23.0,-100.00,SSW,207,14.0,31.0,61,0.00,,,0.51,429.000000,,2013-04-15 18:24:00,
2013-04-15 13:33:00,35.0,23.0,-100.00,SSW,207,14.0,31.0,61,0.00,,,0.51,429.000000,,2013-04-15 18:33:00,
2013-04-15 13:42:00,35.0,23.0,-100.00,SSW,207,14.0,31.0,61,0.00,,,0.51,429.000000,,2013-04-15 18:42:00,
2013-04-15 13:52:00,35.0,23.0,-100.00,SSW,207,14.0,31.0,61,0.00,,,0.51,429.000000,,2013-04-15 18:52:00,
2013-04-15 14:00:00,36.0,24.0,-100.00,SSW,210,11.0,24.0,61,0.00,,,0.51,296.000000,,2013-04-15 19:00:00,
2013-04-15 14:22:00,36.0,24.0,-100.00,SSW,210,11.0,24.0,61,0.00,,,0.51,296.000000,,2013-04-15 19:22:00,
2013-04-15 14:39:00,36.0,24.0,-100.00,SSW,210,11.0,24.0,61,0.00,,,0.51,296.000000,,2013-04-15 19:39:00,
2013-04-15 15:00:00,36.0,25.0,-100.00,SSW,210,11.0,23.0,64,0.00,,,0.51,202.000000,,2013-04-15 20:00:00,
2013-04-15 15:32:00,36.0,25.0,-100.00,SSW,210,11.0,23.0,64,0.00,,,0.51,202.000000,,2013-04-15 20:32:00,
2013-04-15 15:42:00,36.0,25.0,-100.00,SSW,210,11.0,23.0,64,0.00,,,0.51,202.000000,,2013-04-15 20:42:00,
2013-04-15 15:52:00,36.0,25.0,-100.00,SSW,210,11.0,23.0,64,0.00,,,0.51,202.000000,,2013-04-15 20:52:00,
2013-04-15 16:00:00,36.0,26.0,-100.00,SSW,207,10.0,22.0,67,0.00,,,0.51,131.000000,,2013-04-15 21:00:00,
2013-04-15 16:33:00,36.0,26.0,-100.00,SSW,207,10.0,22.0,67,0.00,,,0.51,131.000000,,2013-04-15 21:33:00,
2013-04-15 16:43:00,36.0,26.0,-100.00,SSW,207,10.0,22.0,67,0.00,,,0.51,131.000000,,2013-04-15 21:43:00,
2013-04-15 16:53:00,36.0,26.0,-100.00,SSW,207,10.0,22.0,67,0.00,,,0.51,131.000000,,2013-04-15 21:53:00,
2013-04-15 17:00:00,37.0,25.0,-100.00,SSW,212,10.0,23.0,62,0.00,,,0.51,193.000000,,2013-04-15 22:00:00,
2013-04-15 17:33:00,37.0,25.0,-100.00,SSW,212,10.0,23.0,62,0.00,,,0.51,193.000000,,2013-04-15 22:33:00,
2013-04-15 17:42:00,37.0,25.0,-100.00,SSW,212,10.0,23.0,62,0.00,,,0.51,193.000000,,2013-04-15 22:42:00,
2013-04-15 17:52:00,37.0,25.0,-100.00,SSW,212,10.0,23.0,62,0.00,,,0.51,193.000000,,2013-04-15 22:52:00,
2013-04-15 18:00:00,36.0,25.0,-100.00,SSW,212,10.0,24.0,65,0.00,,,0.51,139.000000,,2013-04-15 23:00:00,
2013-04-15 18:32:00,36.0,25.0,-100.00,SSW,212,10.0,24.0,65,0.00,,,0.51,139.000000,,2013-04-15 23:32:00,
2013-04-15 18:42:00,36.0,25.0,-100.00,SSW,212,10.0,24.0,65,0.00,,,0.51,139.000000,,2013-04-15 23:42:00,
2013-04-15 18:52:00,36.0,25.0,-100.00,SSW,212,10.0,24.0,65,0.00,,,0.51,139.000000,,2013-04-15 23:52:00,
2013-04-15 19:00:00,36.0,25.0,-100.00,SW,216,7.0,19.0,65,0.00,,,0.51,47.000000,,2013-04-16 00:00:00,
2013-04-15 19:22:00,36.0,25.0,-100.00,SW,216,7.0,19.0,65,0.00,,,0.51,47.000000,,2013-04-16 00:22:00,
2013-04-15 19:32:00,36.0,25.0,-100.00,SW,216,7.0,19.0,65,0.00,,,0.51,47.000000,,2013-04-16 00:32:00,
2013-04-15 19:42:00,36.0,25.0,-100.00,SW,216,7.0,19.0,65,0.00,,,0.51,47.000000,,2013-04-16 00:42:00,
2013-04-15 19:52:00,36.0,25.0,-100.00,SW,216,7.0,19.0,65,0.00,,,0.51,47.000000,,2013-04-16 00:52:00,
2013-04-15 20:00:00,35.0,25.0,-100.00,SW,216,9.0,21.0,66,0.00,,,0.51,13.000000,,2013-04-16 01:00:00,
2013-04-15 20:22:00,35.0,25.0,-100.00,SW,216,9.0,21.0,66,0.00,,,0.51,13.000000,,2013-04-16 01:22:00,
2013-04-15 20:32:00,35.0,25.0,-100.00,SW,216,9.0,21.0,66,0.00,,,0.51,13.000000,,2013-04-16 01:32:00,
2013-04-15 20:42:00,35.0,25.0,-100.00,SW,216,9.0,21.0,66,0.00,,,0.51,13.000000,,2013-04-16 01:42:00,
2013-04-15 20:52:00,35.0,25.0,-100.00,SW,216,9.0,21.0,66,0.00,,,0.51,13.000000,,2013-04-16 01:52:00,
2013-04-15 21:00:00,35.0,26.0,-100.00,SW,214,6.0,14.0,69,0.00,,,0.51,0.000000,,2013-04-16 02:00:00,
2013-04-15 21:32:00,35.0,26.0,-100.00,SW,214,6.0,14.0,69,0.00,,,0.51,0.000000,,2013-04-16 02:32:00,
2013-04-15 21:42:00,35.0,26.0,-100.00,SW,214,6.0,14.0,69,0.00,,,0.51,0.000000,,2013-04-16 02:42:00,
2013-04-15 21:52:00,35.0,26.0,-100.00,SW,214,6.0,14.0,69,0.00,,,0.51,0.000000,,2013-04-16 02:52:00,
2013-04-15 22:00:00,34.0,25.0,-100.00,WSW,245,5.0,15.0,70,0.00,,,0.51,0.000000,,2013-04-16 03:00:00,
2013-04-15 22:33:00,34.0,25.0,-100.00,WSW,245,5.0,15.0,70,0.00,,,0.51,0.000000,,2013-04-16 03:33:00,
2013-04-15 22:43:00,34.0,25.0,-100.00,WSW,245,5.0,15.0,70,0.00,,,0.51,0.000000,,2013-04-16 03:43:00,
2013-04-15 22:53:00,34.0,25.0,-100.00,WSW,245,5.0,15.0,70,0.00,,,0.51,0.000000,,2013-04-16 03:53:00,
2013-04-15 23:00:00,34.0,26.0,-100.00,SW,231,7.0,13.0,72,0.00,,,0.47,0.000000,,2013-04-16 04:00:00,
2013-04-15 23:23:00,34.0,26.0,-100.00,SW,231,7.0,13.0,72,0.00,,,0.47,0.000000,,2013-04-16 04:23:00,
2013-04-15 23:33:00,34.0,26.0,-100.00,SW,231,7.0,13.0,72,0.00,,,0.47,0.000000,,2013-04-16 04:33:00,
2013-04-15 23:42:00,34.0,26.0,-100.00,SW,231,7.0,13.0,72,0.00,,,0.47,0.000000,,2013-04-16 04:42:00,
2013-04-15 23:53:00,34.0,26.0,-100.00,SW,231,7.0,13.0,72,0.00,,,0.47,0.000000,,2013-04-16 04:53:00,